Stations météo

Publicité
Tenerife/Los Rodeos, Espagne (60015): Température de l'air & dewpoint: 17.10.2018 21:00:00 - 23.10.2018 21:00:00 (WEST)Tenerife/Los Rodeos, Espagne (60015): Vitesse du vent: 17.10.2018 21:00:00 - 23.10.2018 21:00:00 (WEST)Tenerife/Los Rodeos, Espagne (60015): Direction du vent: 17.10.2018 21:00:00 - 23.10.2018 21:00:00 (WEST)Tenerife/Los Rodeos, Espagne (60015): reduced air pressure: 17.10.2018 21:00:00 - 23.10.2018 21:00:00 (WEST)Tenerife/Los Rodeos, Espagne (60015): visibility: 17.10.2018 21:00:00 - 23.10.2018 21:00:00 (WEST)
Date & Time tt [°C] td [°C] ff [km/h] ff [knt] dd ppp [hPa] vv [km]
23.10.2018 21:00:00 - - - - - - -
23.10.2018 20:00:00 17,0 15,5 5 3 S 1018,9 10
23.10.2018 19:00:00 18,3 16,1 13 7 SSE 1018,3 10
23.10.2018 18:00:00 18,9 15,9 11 6 SE 1018,1 10
23.10.2018 17:00:00 19,2 15,3 11 6 SE 1017,9 10
23.10.2018 16:00:00 21,0 14,8 11 6 SSE 1017,2 10
23.10.2018 15:00:00 21,1 14,5 11 6 SSE 1017,1 10
23.10.2018 14:00:00 19,4 15,6 13 7 SSE 1018,3 10
23.10.2018 13:00:00 18,8 16,6 9 5 SSE 1018,8 10
23.10.2018 12:00:00 19,1 16,0 13 7 SE 1019,1 10
23.10.2018 11:00:00 19,2 15,6 9 5 SE 1018,6 10
23.10.2018 10:00:00 18,3 15,8 11 6 ESE 1018,4 10
23.10.2018 09:00:00 16,1 14,5 2 1 E 1018,3 10
23.10.2018 08:00:00 15,1 13,3 8 4 S 1017,8 10
23.10.2018 07:00:00 15,5 13,5 5 3 S 1017,4 10
23.10.2018 06:00:00 15,1 13,8 11 6 S 1017,2 10
23.10.2018 05:00:00 15,3 14,8 9 5 S 1017,0 10
23.10.2018 04:00:00 15,2 14,9 5 3 SSE 1017,2 10
23.10.2018 03:00:00 15,4 15,1 5 3 SSE 1017,5 10
23.10.2018 02:00:00 15,8 15,5 4 2 SSE 1017,6 7
23.10.2018 01:00:00 15,6 15,3 4 2 - 1017,7 9
23.10.2018 00:00:00 16,4 16,1 0 0 N 1017,7 10
22.10.2018 23:00:00 16,4 15,9 5 3 S 1017,8 10
22.10.2018 22:00:00 16,5 15,9 2 1 - 1017,6 10
22.10.2018 21:00:00 16,3 15,8 8 4 S 1016,9 9
22.10.2018 20:00:00 17,0 16,6 11 6 SSE 1016,0 4,5
22.10.2018 19:00:00 17,2 16,7 9 5 S 1015,8 10
22.10.2018 18:00:00 17,0 16,4 15 8 SSE 1015,6 9
22.10.2018 17:00:00 17,6 15,9 11 6 SSE 1015,5 10
22.10.2018 16:00:00 18,0 16,2 16 9 SSE 1015,0 10
22.10.2018 15:00:00 18,4 15,6 18 10 SSE 1015,1 10
22.10.2018 14:00:00 18,0 16,5 16 9 SSE 1015,7 10
22.10.2018 13:00:00 19,3 16,1 9 5 SE 1015,5 10
22.10.2018 12:00:00 19,5 15,3 11 6 E 1016,1 10
22.10.2018 11:00:00 18,5 15,1 13 7 SSE 1016,4 10
22.10.2018 10:00:00 16,3 14,4 8 4 ESE 1017,2 10
22.10.2018 09:00:00 15,1 13,4 8 4 S 1016,8 10
22.10.2018 08:00:00 15,1 13,0 5 3 W 1016,5 10
22.10.2018 07:00:00 15,0 13,7 4 2 W 1015,9 10
22.10.2018 06:00:00 15,3 13,7 4 2 - 1015,9 10
22.10.2018 05:00:00 14,5 13,2 0 0 N 1016,3 10
22.10.2018 04:00:00 14,3 12,6 4 2 - 1016,2 10
22.10.2018 03:00:00 14,0 12,4 9 5 W 1016,8 10
22.10.2018 02:00:00 14,8 12,8 13 7 W 1016,7 10
22.10.2018 01:00:00 15,2 14,2 9 5 WSW 1017,0 10
22.10.2018 00:00:00 15,0 13,9 4 2 - 1017,6 10
21.10.2018 23:00:00 14,4 12,4 4 2 - 1017,8 10
21.10.2018 22:00:00 15,7 13,6 5 3 WSW 1017,2 10
21.10.2018 21:00:00 15,4 13,9 4 2 SSE 1016,6 10
21.10.2018 20:00:00 16,6 14,9 9 5 S 1015,9 10
21.10.2018 19:00:00 17,4 15,9 8 4 SSE 1015,3 10
21.10.2018 18:00:00 18,1 15,7 11 6 SSE 1015,0 10
21.10.2018 17:00:00 18,1 16,3 11 6 S 1014,9 10
21.10.2018 16:00:00 18,3 15,5 8 4 SSE 1014,9 10
21.10.2018 15:00:00 18,8 15,7 4 2 SSE 1015,1 10
21.10.2018 14:00:00 18,9 14,6 9 5 W 1015,3 10
21.10.2018 13:00:00 21,3 15,1 9 5 - 1014,9 10
21.10.2018 12:00:00 19,6 14,3 13 7 ESE 1015,8 10
21.10.2018 11:00:00 19,1 15,6 13 7 ESE 1015,7 10
21.10.2018 10:00:00 17,6 14,4 13 7 SSE 1016,0 10
21.10.2018 09:00:00 15,9 13,3 5 3 S 1015,8 10
21.10.2018 08:00:00 13,6 9,1 13 7 W 1016,0 10
21.10.2018 07:00:00 11,8 9,4 13 7 W 1015,8 10
21.10.2018 06:00:00 13,8 8,7 11 6 W 1015,3 10
21.10.2018 05:00:00 13,2 9,1 16 9 W 1015,3 10
21.10.2018 04:00:00 15,4 8,8 15 8 W 1014,7 10
21.10.2018 03:00:00 14,2 9,2 8 4 W 1015,5 10
21.10.2018 02:00:00 13,4 12,3 5 3 WNW 1016,1 10
21.10.2018 01:00:00 14,5 13,2 2 1 SSW 1016,5 10
21.10.2018 00:00:00 15,0 13,7 2 1 - 1016,8 10
20.10.2018 23:00:00 15,8 14,5 5 3 S 1016,4 10
20.10.2018 22:00:00 15,4 13,6 4 2 - 1016,1 10
20.10.2018 21:00:00 15,3 14,0 11 6 W 1015,4 10
20.10.2018 20:00:00 16,5 14,5 5 3 W 1014,6 10
20.10.2018 19:00:00 18,2 14,5 4 2 - 1013,9 10
20.10.2018 18:00:00 18,4 14,7 5 3 - 1013,7 10
20.10.2018 17:00:00 18,7 14,6 13 7 NW 1013,5 10
20.10.2018 16:00:00 18,5 14,5 16 9 WNW 1013,7 10
20.10.2018 15:00:00 19,6 14,5 15 8 NW 1013,6 10
20.10.2018 14:00:00 19,7 13,7 16 9 WNW 1014,2 10
20.10.2018 13:00:00 19,2 14,6 16 9 NNW 1015,0 10
20.10.2018 12:00:00 18,8 14,1 13 7 WNW 1015,5 10
20.10.2018 11:00:00 17,8 14,0 13 7 WNW 1015,5 10
20.10.2018 10:00:00 16,7 15,1 16 9 W 1015,3 10
20.10.2018 09:00:00 15,3 14,5 21 11 W 1014,6 10
20.10.2018 08:00:00 14,5 13,8 16 9 W 1014,3 10
20.10.2018 07:00:00 14,4 13,6 15 8 W 1013,9 10
20.10.2018 06:00:00 14,4 13,8 15 8 W 1013,9 10
20.10.2018 05:00:00 14,6 14,3 13 7 W 1013,8 10
20.10.2018 04:00:00 15,2 14,8 15 8 NW 1013,9 10
20.10.2018 03:00:00 14,8 14,3 11 6 WNW 1014,5 10
20.10.2018 02:00:00 14,8 14,0 11 6 W 1015,2 10
20.10.2018 01:00:00 14,9 13,8 13 7 NW 1015,6 10
20.10.2018 00:00:00 15,7 14,2 13 7 NW 1016,0 10
19.10.2018 23:00:00 15,7 14,6 15 8 NNW 1016,2 10
19.10.2018 22:00:00 15,7 14,7 24 13 NW 1016,1 7
19.10.2018 21:00:00 15,7 15,1 18 10 NW 1015,6 4,5
19.10.2018 20:00:00 15,6 15,0 18 10 NW 1015,3 10
19.10.2018 19:00:00 15,8 15,2 21 11 WNW 1014,7 10
19.10.2018 18:00:00 16,0 15,2 22 12 NW 1014,6 6
19.10.2018 17:00:00 17,2 15,7 21 11 NW 1014,2 10
19.10.2018 16:00:00 16,6 15,4 16 9 WNW 1014,7 10
19.10.2018 15:00:00 16,4 15,4 18 10 NW 1015,3 10
19.10.2018 14:00:00 15,6 14,7 21 11 WNW 1016,4 8
19.10.2018 13:00:00 16,5 14,5 22 12 WNW 1016,7 10
19.10.2018 12:00:00 16,5 14,9 28 15 WNW 1017,0 8
19.10.2018 11:00:00 15,4 14,2 22 12 NW 1017,6 4,0
19.10.2018 10:00:00 16,2 12,6 22 12 WNW 1016,8 10
19.10.2018 09:00:00 15,5 11,7 21 11 NW 1016,8 10
19.10.2018 08:00:00 14,5 10,1 18 10 NW 1016,6 10
19.10.2018 07:00:00 14,8 9,8 22 12 NNW 1016,5 10
19.10.2018 06:00:00 14,9 11,3 16 9 NNW 1016,7 10
19.10.2018 05:00:00 15,1 13,2 22 12 NNW 1017,0 10
19.10.2018 04:00:00 14,7 12,7 26 14 NNW 1017,4 10
19.10.2018 03:00:00 15,0 12,1 26 14 NW 1018,0 9
19.10.2018 02:00:00 15,1 13,1 22 12 NW 1018,6 9
19.10.2018 01:00:00 15,9 11,6 26 14 NW 1018,5 10
19.10.2018 00:00:00 15,8 12,4 22 12 NW 1018,9 10
18.10.2018 23:00:00 15,8 11,0 26 14 NW 1018,8 10
18.10.2018 22:00:00 16,1 11,9 29 16 NW 1018,4 10
18.10.2018 21:00:00 16,3 11,2 28 15 NW 1018,2 10
18.10.2018 20:00:00 16,1 12,1 29 16 NW 1018,0 10
18.10.2018 19:00:00 16,6 12,2 31 17 NW 1017,6 10
18.10.2018 18:00:00 17,0 13,5 22 12 NNW 1017,2 10
18.10.2018 17:00:00 17,4 12,7 28 15 NW 1017,2 10
18.10.2018 16:00:00 17,7 13,5 24 13 NNW 1017,6 10
18.10.2018 15:00:00 17,5 13,7 26 14 NNW 1018,1 10
18.10.2018 14:00:00 17,4 13,2 26 14 NNW 1018,8 10
18.10.2018 13:00:00 17,1 14,1 26 14 NNW 1019,5 10
18.10.2018 12:00:00 16,6 15,3 29 16 NW 1019,7 7
18.10.2018 11:00:00 16,6 16,0 29 16 NW 1019,6 3,0
18.10.2018 10:00:00 17,1 16,8 24 13 NW 1019,5 1,0
18.10.2018 09:00:00 17,2 17,0 28 15 WNW 1019,0 0,5
18.10.2018 08:00:00 16,4 15,9 21 11 NW 1018,8 3,0
18.10.2018 07:00:00 16,4 15,3 18 10 WNW 1019,0 10
18.10.2018 06:00:00 16,1 14,5 18 10 NNW 1019,1 10
18.10.2018 05:00:00 16,6 15,6 24 13 NNW 1018,9 10
18.10.2018 04:00:00 16,2 15,9 26 14 NW 1019,4 13
18.10.2018 03:00:00 16,3 15,7 21 11 NW 1019,8 6
18.10.2018 02:00:00 17,1 16,5 24 13 NW 1019,7 8
18.10.2018 01:00:00 17,1 16,2 21 11 W 1020,1 10
18.10.2018 00:00:00 17,0 16,1 24 13 WNW 1020,5 9
17.10.2018 23:00:00 17,3 16,3 22 12 WNW 1020,7 10
17.10.2018 22:00:00 16,9 16,2 21 11 NW 1020,5 10
17.10.2018 21:00:00 16,7 16,4 28 15 NW 1019,9 9

tt = Température de l'air
td = dewpoint
ff = Vitesse du vent
dd = Direction du vent
ppp = reduced air pressure
vv = visibility

stations d'obs. à proximité